Location: Unspecified
(41.1637°N, 24.2901°E)
Time: 15:10:57
(UTC+01:00)

ISS - Pass Details

Date: 21 February 2024
Orbit: 414 x 422 km, 51.6° (Epoch: 04 March)

Event Time Altitude Azimuth Distance (km) Brightness Sun altitude
Exits shadow 04:30:20 45° 346° (NNW) 588 -3.2 -19.5°
Drops below altitude 10° 04:33:22 10° 45° (NE) 1,513 -0.3 -18.9°
Sets 04:35:32 0° 52° (NE) 2,381 1.0 -18.5°
